Wind_Speed
9 7 7 6 6 5 4 2 2 1 0 1 2 3 4 5 5 5 6 7 9 11 11 12 14 11 6 5 6 8 9 11 13 15 17 18 20 21 22 24 25 26 27 28 28 29 29 30 30 31 31 32 33 34 35 36 37 38 39 40 41 40 38 38 38 40 41 40 39 37 35 34 34 33 33 33 35 36 38 39 41 42 43 44 45 45
9 9 10 10 9 8 6 4 3 3 2 2 3 4 6 6 6 7 8 8 10 13 12 13 19 16 11 8 7 8 10 11 13 15 18 20 21 22 24 25 26 27 27 28 29 30 30 30 31 31 32 32 33 34 36 36 37 38 39 40 41 40 38 37 38 39 40 40 38 36 34 33 33 33 33 33 34 36 38 40 41 42 43 44 45 46
9 12 14 13 12 11 9 8 6 4 4 3 4 5 6 6 8 8 9 10 12 15 15 16 22 21 17 17 15 11 10 11 14 16 18 21 22 23 25 26 26 27 28 29 30 30 31 31 31 32 33 33 33 35 36 37 37 37 39 40 40 40 38 37 38 39 40 40 39 36 34 33 33 33 33 33 35 36 38 40 41 43 43 44 45 46
9 13 14 13 13 12 11 11 8 6 5 5 6 7 7 8 9 9 9 11 13 16 18 19 25 27 20 18 19 16 14 14 14 17 19 21 23 23 24 26 27 28 29 30 31 31 32 32 33 33 34 34 34 35 36 37 37 37 38 39 40 40 39 37 38 39 40 40 39 37 35 33 33 33 34 34 35 36 37 38 40 41 42 43 45 46
10 12 13 12 12 12 12 11 11 9 7 7 9 10 9 9 9 10 11 12 15 17 18 19 26 27 17 11 14 16 18 17 15 16 19 22 24 24 24 25 27 28 30 31 32 32 33 34 34 35 35 35 35 35 36 37 37 37 37 38 39 40 39 38 38 39 41 41 40 38 35 34 33 33 34 34 34 35 36 37 38 40 42 44 45 46
10 10 10 11 11 11 11 10 11 10 8 9 11 12 11 11 11 12 12 13 16 15 16 18 16 17 19 18 16 18 19 17 16 17 19 21 23 25 25 25 27 28 30 31 32 33 34 34 35 35 36 36 36 36 37 37 37 37 37 38 39 40 39 38 38 39 41 42 40 38 36 34 32 32 32 33 34 35 36 37 38 40 42 44 45 47
9 9 8 9 9 9 9 9 10 11 10 10 12 13 12 13 13 13 14 14 13 12 17 20 11 14 29 25 14 15 17 16 16 16 18 21 23 25 26 26 27 28 30 31 32 33 34 34 35 35 36 36 37 37 37 37 37 37 37 37 38 39 39 38 39 40 41 42 41 38 36 34 33 32 32 33 34 35 36 38 39 40 42 44 45 46
7 7 7 7 8 8 9 10 11 12 12 11 13 14 14 16 16 15 15 15 16 17 20 21 14 15 26 25 18 18 16 14 15 14 17 21 23 26 28 28 28 29 30 31 32 33 33 34 35 35 36 36 37 37 37 37 37 37 36 37 38 39 39 39 39 40 41 42 41 38 36 34 34 33 33 33 34 36 37 38 39 40 42 43 44 46
7 7 8 8 8 9 10 11 12 13 13 13 15 16 17 18 19 17 14 15 18 18 17 17 13 9 19 28 25 17 14 13 14 13 16 20 23 27 29 30 30 30 31 31 32 33 33 34 34 35 35 36 37 37 37 37 37 37 37 37 38 39 39 39 38 39 41 42 41 39 36 34 34 34 33 34 35 36 37 38 39 40 41 43 44 45
8 8 8 9 9 10 11 12 13 14 14 15 15 17 18 19 20 18 14 15 14 14 13 13 9 5 16 31 23 11 13 14 13 14 16 20 23 27 30 31 31 31 31 31 32 32 33 34 34 34 35 36 36 37 37 38 38 38 37 37 38 39 39 39 38 39 41 42 42 39 36 35 34 34 33 34 35 36 37 38 39 40 41 43 44 46
9 9 8 9 10 11 12 13 14 15 15 16 16 17 19 19 18 17 14 12 8 8 7 7 8 4 10 23 19 11 16 17 15 17 17 19 22 26 30 32 32 32 31 31 31 32 33 33 34 34 35 36 36 37 37 38 38 38 38 37 38 39 39 39 38 39 41 42 42 39 36 35 34 34 34 34 35 35 37 38 39 40 42 43 44 46
10 9 9 9 10 11 12 13 15 16 16 16 15 18 19 16 14 11 9 5 2 4 5 7 10 6 10 17 19 16 18 17 16 17 18 21 23 25 29 32 33 32 32 31 31 32 33 33 34 34 35 36 36 37 37 38 39 39 38 37 38 38 39 39 38 39 41 42 42 39 36 35 34 34 35 35 35 36 37 38 40 41 42 43 45 46
10 9 8 9 11 12 10 12 15 16 16 15 16 17 13 9 8 5 4 3 4 6 8 10 12 12 20 21 21 19 16 11 12 17 21 24 26 26 29 31 33 32 32 32 31 32 33 33 34 35 35 36 37 37 38 38 39 39 39 38 37 38 39 39 38 38 40 42 42 40 37 35 35 35 35 35 36 36 37 39 40 42 43 44 45 47
11 8 7 9 12 11 10 13 15 15 17 17 16 13 8 3 4 3 4 3 6 8 11 16 16 15 20 22 23 19 12 8 14 19 21 24 27 29 31 31 33 33 32 32 31 32 33 33 34 35 36 36 37 38 38 38 39 39 39 38 37 38 38 38 38 38 39 41 41 39 37 35 35 35 35 36 36 36 37 39 40 41 43 44 46 47
11 7 7 11 12 11 11 13 15 17 19 16 11 9 6 2 1 4 4 3 8 13 15 17 11 10 17 24 22 13 9 12 17 19 21 25 29 31 32 32 33 34 33 33 32 32 33 34 34 35 36 36 37 38 38 38 39 39 39 38 37 37 38 38 38 38 38 40 41 39 37 35 35 35 35 36 36 37 37 39 40 41 42 44 46 47
9 9 12 14 13 12 12 14 16 19 17 10 8 9 8 6 5 7 8 9 12 14 12 10 10 15 28 28 16 8 11 15 18 21 23 27 31 32 34 34 33 35 35 34 33 33 33 34 34 35 36 37 37 38 38 38 39 39 38 38 37 37 37 38 38 37 38 39 40 39 37 35 35 35 36 36 36 37 37 38 40 40 42 44 45 47
10 13 15 14 12 10 11 14 16 18 15 11 12 12 9 9 9 8 9 11 8 6 8 9 13 25 32 24 13 11 14 16 18 23 26 28 32 33 34 36 36 37 37 36 35 33 33 33 34 35 36 37 38 38 38 38 38 38 38 37 37 37 37 37 37 37 37 38 39 38 36 35 35 35 36 36 36 36 37 38 39 40 41 43 45 47
15 18 18 14 10 10 13 17 17 17 16 14 14 13 10 9 7 5 5 5 2 2 8 13 16 24 24 17 17 16 15 18 22 26 28 30 31 32 34 37 38 39 39 37 36 34 33 33 34 36 36 37 37 38 39 38 37 37 37 37 37 36 36 37 37 36 37 38 39 38 36 35 35 35 36 36 36 36 37 37 38 39 41 43 45 47
18 18 18 14 10 13 18 20 19 18 17 15 14 13 11 7 6 6 3 2 3 1 6 14 18 22 24 20 21 20 18 22 27 30 33 32 33 34 34 36 38 39 38 37 36 35 34 34 34 36 37 37 38 38 39 38 37 37 37 37 36 36 36 36 36 36 36 37 38 37 36 34 35 35 36 36 36 37 37 37 38 39 40 42 44 46
19 15 13 16 18 20 22 20 19 21 18 16 15 13 12 10 9 9 5 4 4 1 4 11 15 23 30 26 25 25 22 25 30 35 35 34 36 36 33 36 38 39 38 38 37 36 34 34 34 36 37 38 38 38 38 38 37 36 36 36 36 36 36 36 35 35 36 37 38 37 35 34 34 35 35 36 36 37 37 37 37 38 39 42 44 46
20 14 15 22 24 22 22 22 23 24 20 18 17 14 12 11 10 10 10 11 8 3 2 1 7 30 38 29 28 29 24 27 34 37 35 36 39 37 33 35 39 40 40 39 39 38 36 35 35 36 37 37 38 38 38 38 37 36 35 35 35 35 35 35 35 35 35 36 37 37 35 34 34 35 35 36 36 37 37 37 37 37 39 41 44 46
20 18 22 27 26 23 24 25 24 22 19 18 17 14 13 12 11 9 8 12 12 8 7 3 6 34 45 35 34 34 28 33 39 38 36 38 40 38 32 33 39 42 42 41 41 40 39 37 35 36 37 37 38 38 37 37 36 35 34 34 34 34 35 35 35 35 35 36 37 37 34 33 34 35 35 36 36 37 37 37 37 37 39 41 43 46
22 21 24 28 29 26 22 20 17 16 15 14 14 15 15 15 16 11 7 11 11 11 14 6 6 33 48 40 38 38 35 39 41 38 37 38 38 37 33 34 40 43 43 41 41 41 40 39 37 36 37 37 38 37 37 36 35 34 33 32 33 34 34 35 35 35 35 36 37 36 34 33 33 34 35 35 36 36 36 36 36 37 38 40 43 45
23 19 22 31 35 30 20 14 14 16 17 17 17 18 19 19 21 18 17 19 15 15 17 7 6 31 46 41 39 41 39 39 38 38 38 37 38 38 36 38 42 45 44 42 41 41 40 40 38 37 37 37 37 37 36 36 35 33 32 32 33 34 34 35 35 35 35 35 37 36 34 33 33 34 35 35 35 36 36 36 36 36 37 39 42 45
21 17 21 28 29 25 20 15 18 24 25 25 25 24 23 25 24 22 24 23 17 20 21 8 11 35 45 40 38 39 37 38 38 38 38 35 35 38 40 43 45 46 46 43 42 42 39 39 39 38 38 37 37 36 35 35 34 33 32 31 32 33 34 35 35 35 35 35 36 36 35 33 32 33 34 35 35 36 36 36 35 36 37 39 41 44
24 21 21 18 11 11 14 16 24 33 34 32 32 30 28 29 28 25 23 19 16 22 25 18 25 43 47 38 35 35 36 39 40 39 38 37 37 40 44 48 49 48 47 44 43 41 39 39 39 39 39 38 37 36 35 34 34 33 32 31 32 33 34 34 35 34 35 35 36 36 35 33 32 33 34 34 34 35 35 35 35 35 36 38 40 43
26 27 26 21 19 19 22 25 29 33 33 33 33 32 31 29 29 27 23 23 24 27 31 34 40 47 43 36 34 36 37 40 42 42 42 43 43 46 50 52 51 49 48 45 43 41 41 40 40 40 40 38 37 35 34 34 33 33 32 32 32 32 33 34 34 34 35 35 36 36 35 33 32 32 33 33 34 34 35 35 35 35 36 38 40 42
28 31 28 27 29 28 29 31 29 26 27 30 30 32 33 30 30 30 27 30 31 25 27 37 41 40 38 36 35 38 39 40 42 43 45 47 49 52 54 53 51 49 48 46 44 43 43 42 42 42 40 38 36 34 33 33 33 32 32 32 32 32 32 33 33 34 34 35 36 36 36 34 32 32 32 33 34 34 34 34 34 35 36 37 39 41
29 30 30 30 31 31 31 30 26 23 24 27 30 34 36 33 30 30 30 31 30 28 30 36 34 34 36 35 35 37 38 40 43 45 47 51 53 55 55 52 49 48 48 47 46 45 44 43 43 42 40 38 35 33 33 32 32 32 32 32 32 31 32 32 33 33 34 35 36 36 36 34 33 32 32 32 33 33 33 34 34 34 35 36 38 40
27 28 30 30 31 33 30 27 26 25 26 31 36 35 32 27 25 27 30 31 29 31 35 33 29 33 35 33 34 37 38 42 45 47 50 54 56 57 55 51 48 47 47 47 46 45 43 43 42 41 39 37 34 33 32 31 32 32 32 31 31 31 31 32 32 32 33 34 35 36 36 35 34 32 31 32 33 33 33 33 33 34 35 36 38 40
25 27 28 28 32 33 29 28 29 28 32 38 34 26 22 24 27 30 31 29 28 30 31 28 31 35 32 31 35 38 41 46 48 51 55 57 59 58 54 50 48 47 48 48 47 45 43 42 41 40 38 36 33 32 31 31 31 31 32 31 31 31 31 31 32 32 33 34 35 36 36 36 34 32 31 31 32 33 33 32 33 33 34 35 37 39
25 27 27 27 29 31 31 31 31 33 38 33 23 24 30 31 30 29 26 26 28 30 30 30 32 32 31 35 39 41 44 48 51 54 58 58 59 58 53 50 49 48 49 49 48 46 43 42 41 40 38 35 33 32 31 31 31 31 32 31 30 31 31 31 31 31 32 33 34 35 36 36 35 33 31 31 32 33 33 32 32 33 33 34 36 38
25 26 28 25 24 31 34 32 34 38 30 18 21 32 33 28 25 23 24 29 32 33 35 34 29 28 34 41 46 46 48 51 54 58 60 60 59 56 53 51 50 50 50 49 48 45 43 42 41 40 38 34 32 31 31 30 30 31 31 31 30 31 31 32 31 30 31 32 33 35 36 36 35 33 32 31 31 32 33 32 32 32 32 33 35 37
25 25 27 23 21 29 36 35 34 27 14 17 31 30 20 21 25 24 28 35 35 36 39 34 26 30 40 47 50 51 52 55 58 60 60 59 57 55 55 54 51 51 51 49 47 44 42 41 40 38 37 33 31 31 30 30 30 30 31 31 30 31 32 32 31 30 30 30 32 34 36 36 36 34 32 31 31 31 32 32 31 32 32 33 34 36
25 25 26 23 22 28 35 31 21 13 19 36 37 19 15 27 29 28 35 41 41 40 39 30 26 36 46 49 51 52 54 56 59 60 59 57 55 56 55 54 51 50 50 47 45 43 42 41 40 38 35 32 30 30 29 29 30 30 30 31 31 31 32 32 32 30 30 30 31 33 36 37 37 34 33 32 31 31 32 31 31 31 31 32 33 35
26 25 25 25 23 24 26 21 13 18 37 46 29 16 26 34 30 32 41 49 50 42 31 26 30 43 51 52 53 54 55 58 59 59 58 57 56 55 53 52 50 48 46 45 44 44 43 42 41 38 35 32 30 29 28 29 29 30 30 31 31 31 32 32 32 31 31 30 30 32 35 37 37 35 33 32 31 31 31 31 31 31 31 32 33 34
27 26 27 25 20 19 22 25 27 31 39 39 28 26 33 32 30 34 42 54 53 33 21 29 42 51 55 55 55 54 55 59 60 58 58 57 55 51 48 47 45 44 43 41 41 42 42 42 42 40 36 32 29 28 28 29 29 30 30 31 32 32 32 32 31 32 32 31 30 32 34 37 38 36 34 32 31 30 30 30 30 30 30 31 32 33
29 30 29 23 20 23 22 23 22 19 24 34 37 34 31 30 36 40 45 52 43 23 25 44 53 56 57 56 56 56 57 61 62 60 59 58 53 48 46 45 42 40 40 39 38 40 40 40 42 40 36 32 29 28 29 30 30 30 30 31 32 32 32 32 31 32 32 31 30 32 34 37 38 37 35 33 31 30 30 29 29 29 29 30 31 32
33 33 30 24 25 27 22 18 13 12 23 39 41 32 28 34 45 46 40 39 36 33 44 55 55 55 56 55 56 58 57 57 58 58 57 55 50 45 43 44 42 38 37 36 37 39 40 40 40 37 34 32 30 30 31 31 31 31 30 31 33 32 32 33 32 31 32 32 32 32 35 37 39 38 36 34 31 30 29 29 29 29 28 29 30 31
35 32 29 27 28 28 24 22 21 23 34 40 33 27 33 43 48 37 23 29 43 50 54 55 53 52 54 53 54 53 47 43 43 46 46 44 43 40 38 38 38 37 36 35 35 37 38 39 38 36 33 32 31 33 33 33 33 32 31 32 33 31 31 33 33 32 32 33 32 33 35 38 39 39 38 35 32 30 29 28 28 28 28 28 29 30
34 31 30 29 29 29 26 25 29 36 38 31 24 32 45 47 39 27 24 39 53 54 53 54 52 52 53 51 48 44 38 33 31 33 34 34 36 37 35 35 35 35 35 35 36 37 37 37 38 36 33 31 32 34 35 35 36 34 32 34 33 30 31 34 34 33 33 33 33 34 36 38 39 40 39 36 33 30 28 27 27 27 27 27 28 29
31 30 29 28 27 27 26 26 29 33 32 28 33 45 47 39 33 33 41 51 53 49 49 50 51 52 50 45 40 38 36 32 29 30 31 31 33 35 35 35 35 36 36 37 37 38 38 38 39 38 36 34 33 34 35 37 37 36 35 35 32 30 32 34 34 34 35 34 33 34 37 39 40 41 41 38 34 30 28 27 26 26 26 26 27 28
29 25 25 27 26 26 28 24 20 23 31 38 44 44 39 37 40 44 49 51 47 45 46 49 51 47 41 39 39 36 34 33 32 32 32 33 34 35 35 36 37 38 39 40 41 42 43 42 42 42 41 39 37 36 36 37 38 37 37 35 31 31 34 34 34 35 35 34 34 35 37 39 41 42 42 40 35 31 28 26 26 26 26 25 26 27
27 23 25 29 28 28 30 27 24 32 39 37 34 34 37 41 44 45 47 49 47 46 48 51 50 42 34 34 36 35 34 35 35 35 35 35 35 36 37 38 39 41 42 43 45 47 47 48 48 48 47 44 41 38 37 38 39 39 37 35 32 34 36 34 33 35 35 34 34 35 37 39 41 42 43 42 37 32 28 26 25 25 25 24 24 25
29 28 30 33 31 30 35 36 36 41 41 31 28 34 39 40 41 44 46 47 47 49 51 51 49 43 37 35 35 36 36 36 37 38 38 38 38 39 40 41 42 44 46 47 49 51 52 53 54 53 52 48 43 41 39 38 39 39 37 35 34 35 36 34 34 34 34 34 34 34 36 39 40 43 45 43 39 33 29 26 25 25 24 24 23 24
30 29 29 32 31 31 37 40 38 40 39 35 34 38 39 39 41 43 44 45 47 48 47 45 44 43 40 38 39 41 40 39 40 41 40 40 41 41 42 44 45 48 51 53 55 56 57 58 58 58 57 51 44 42 42 39 38 38 36 35 35 35 35 34 35 35 34 34 34 34 36 37 39 42 45 44 40 34 29 27 25 24 24 23 22 22
26 27 28 30 30 31 37 41 39 40 42 39 38 39 39 39 40 40 42 43 43 43 41 38 37 38 38 39 40 42 43 43 43 44 44 45 46 46 47 48 50 53 56 58 60 61 61 62 61 61 61 56 48 44 43 40 38 36 35 36 36 36 35 35 34 35 35 34 35 35 35 36 38 41 45 45 42 36 30 27 26 25 24 23 21 21
23 28 29 31 32 34 38 39 39 43 46 42 39 38 36 37 40 41 42 41 40 40 39 36 35 36 38 39 40 42 44 45 45 47 49 50 51 52 53 54 55 57 59 60 62 62 62 63 62 61 61 58 51 47 43 39 37 36 35 36 36 37 37 37 37 37 36 35 35 35 35 36 38 40 44 46 42 36 31 28 26 25 24 23 21 20
23 29 29 31 36 38 39 38 38 43 48 46 42 38 36 38 41 41 41 40 38 38 39 39 39 39 39 41 42 44 47 48 49 50 52 53 54 54 55 56 57 58 59 60 61 62 62 62 62 62 60 57 52 47 42 37 36 36 36 37 37 38 40 41 41 41 39 36 35 35 35 36 38 40 44 46 43 37 32 29 27 26 24 23 21 20
25 30 29 31 36 39 41 39 36 39 45 46 43 38 38 40 41 41 41 40 38 39 41 43 45 44 44 45 45 46 49 51 52 53 54 55 55 55 56 58 59 59 60 61 62 63 63 63 62 61 58 54 50 45 40 35 34 36 36 37 38 39 41 42 43 43 41 38 36 36 36 37 38 39 43 46 43 38 34 30 28 26 25 23 22 20
29 32 31 33 37 40 42 39 35 37 42 43 41 38 40 42 42 41 40 39 39 41 42 44 47 49 50 51 50 49 50 52 54 55 56 57 57 57 59 60 61 62 64 65 66 66 65 64 63 60 55 51 47 43 38 34 32 34 36 37 38 39 40 41 42 42 42 40 39 38 38 38 39 39 42 45 43 39 35 32 29 26 25 24 22 21
Wind_Direction
74 85 98 99 95 86 76 73 72 66 66 298 294 293 291 292 288 282 286 292 293 290 280 272 273 273 276 288 302 305 316 336 344 348 349 349 349 348 349 351 353 355 354 352 350 348 346 344 341 338 336 337 337 336 335 334 334 334 335 336 337 339 339 338 336 335 335 334 334 334 334 333 333 333 333 333 333 334 334 334 334 334 334 333 332 332
78 82 82 79 73 65 55 48 39 25 10 333 313 305 298 298 294 285 284 287 289 290 288 279 275 273 270 277 295 305 312 330 339 342 344 345 346 346 347 348 350 353 353 352 351 348 347 345 342 339 337 337 337 336 335 334 333 333 334 335 336 336 337 335 334 333 333 333 333 333 333 333 332 332 332 333 333 334 333 333 334 334 334 333 331 331
72 67 66 63 55 50 43 34 26 22 15 357 338 324 311 303 299 290 285 288 290 290 293 288 281 281 279 272 272 285 308 323 329 335 339 339 342 342 343 344 346 350 352 351 351 349 347 346 343 341 339 338 338 336 335 334 332 332 332 333 334 334 335 334 332 332 332 333 333 332 333 333 332 331 332 333 334 334 333 333 334 333 332 331 330 331
63 60 55 50 44 39 33 29 22 17 14 1 351 342 328 315 304 295 292 295 294 294 297 295 289 293 296 279 265 267 289 307 316 327 334 334 338 340 340 341 344 347 350 349 349 348 347 346 344 343 341 339 338 336 334 333 332 331 331 331 332 332 333 333 331 331 332 332 333 332 332 332 332 332 332 333 333 333 333 332 332 331 330 330 330 330
52 54 46 40 36 29 25 22 17 17 16 5 355 345 331 321 312 304 301 297 297 297 296 299 300 301 305 299 287 278 277 291 303 315 329 331 333 338 338 340 343 345 347 348 348 347 346 346 345 344 342 340 338 336 334 333 331 329 329 330 330 331 332 332 331 331 332 332 333 332 331 331 332 332 332 332 331 330 331 331 331 330 330 330 331 331
35 39 34 29 24 17 15 11 11 14 13 7 358 350 337 324 315 308 306 301 300 299 299 309 313 304 303 306 307 295 277 279 292 306 324 330 331 335 337 340 343 344 345 346 346 346 345 345 345 344 342 340 338 336 334 333 331 329 328 329 330 331 332 332 330 331 331 332 332 332 330 329 331 331 330 330 329 330 331 331 332 332 331 332 332 331
21 22 19 17 9 2 360 356 2 3 0 2 354 349 343 332 323 308 301 301 300 298 301 307 301 288 303 311 315 303 287 276 284 302 323 329 331 333 335 340 343 343 343 344 344 345 344 344 344 343 341 340 338 336 334 332 331 329 328 328 329 330 331 331 330 330 331 332 332 331 329 328 329 330 330 329 330 331 332 332 332 333 332 332 332 331
4 1 359 1 354 345 344 346 351 350 349 348 343 341 338 335 332 315 297 289 291 297 299 299 288 276 293 309 319 307 294 281 281 299 322 328 331 332 334 338 342 343 341 342 343 342 343 342 342 341 340 339 337 335 334 333 331 330 328 329 329 330 331 331 330 330 331 332 331 330 328 328 329 330 330 330 330 331 332 333 333 333 332 332 331 331
346 345 344 342 338 334 335 339 341 342 340 335 334 335 332 331 331 323 303 287 291 299 298 293 291 269 277 301 315 304 291 294 289 300 322 328 330 330 332 335 339 342 340 339 340 340 340 340 339 339 338 337 336 335 335 334 333 331 330 329 329 330 331 331 330 330 331 331 331 329 327 327 328 329 330 330 330 331 332 332 332 332 332 332 332 331
329 328 329 326 326 324 323 328 329 331 332 329 330 328 328 330 327 321 307 295 293 292 292 289 288 274 288 304 316 302 299 312 298 300 321 328 327 328 329 332 336 339 338 336 337 338 338 338 337 337 336 336 336 336 336 335 334 333 331 330 330 331 331 332 331 330 330 331 330 328 327 327 327 328 329 330 330 331 332 332 331 332 332 333 333 332
321 311 305 311 322 324 320 322 322 322 322 321 325 326 327 328 321 313 302 299 298 283 280 281 286 286 296 312 323 313 312 319 304 302 317 323 324 324 325 328 333 336 335 334 334 335 336 335 335 334 334 334 335 336 337 336 336 334 332 331 330 331 332 332 331 330 330 330 329 328 326 326 327 328 329 329 330 331 331 331 331 332 334 334 334 333
323 306 294 300 315 325 325 324 323 321 317 314 319 325 326 324 320 312 297 291 275 274 282 283 297 283 259 300 329 326 317 318 307 308 318 322 323 322 321 324 330 334 332 331 331 332 333 333 333 333 333 333 334 336 337 337 337 336 334 333 331 331 332 332 332 331 330 330 329 327 326 326 327 328 329 329 330 331 331 331 332 333 334 335 335 334
327 314 302 297 304 317 324 330 331 328 323 315 313 323 327 331 340 324 278 275 245 251 277 291 304 285 267 293 330 331 324 322 313 319 322 323 324 321 320 323 328 332 330 329 329 330 331 331 332 332 332 332 333 336 337 338 338 337 336 334 333 332 332 332 332 331 331 330 329 327 326 326 326 327 329 329 330 331 331 332 333 334 335 336 336 335
336 326 320 311 305 305 309 324 332 332 328 317 309 321 334 1 18 321 277 295 274 261 272 286 298 287 280 309 332 328 330 332 325 328 326 324 326 324 324 325 329 331 329 328 327 327 329 330 331 331 331 331 332 335 337 338 339 339 338 336 334 333 332 333 332 332 331 330 329 327 326 326 326 327 328 329 330 331 331 332 333 335 336 336 336 336
335 320 324 323 309 298 298 310 321 329 329 319 306 313 316 303 269 277 266 260 292 297 287 280 280 270 292 321 332 330 336 332 329 332 329 331 333 329 328 327 328 331 329 327 326 325 326 328 329 330 330 330 331 333 336 337 339 340 339 338 336 333 333 333 333 332 331 330 329 328 326 326 326 327 328 329 329 330 331 333 334 336 336 336 336 336
327 317 321 319 308 299 299 304 314 325 329 321 306 299 294 292 272 262 265 270 291 308 298 264 246 279 305 323 337 343 338 332 329 329 331 337 336 330 328 326 326 330 330 326 324 324 324 326 328 328 329 329 329 331 334 336 338 340 340 339 337 334 333 333 333 333 331 330 329 328 326 326 326 327 328 329 329 330 331 333 335 336 336 336 336 336
319 319 323 319 307 302 307 311 314 320 321 310 301 294 287 293 285 265 271 283 291 308 299 266 269 299 315 331 349 348 342 336 330 330 335 337 333 328 326 326 326 328 329 327 324 322 322 323 326 327 328 328 328 329 331 334 338 340 340 340 338 335 334 334 333 333 332 330 329 328 326 325 326 327 328 329 328 329 331 333 335 337 337 336 336 336
320 319 325 324 309 305 316 316 313 317 316 305 297 293 290 292 283 262 272 307 340 310 289 279 284 301 309 326 346 349 344 338 338 341 341 337 331 327 326 327 327 328 328 326 323 322 321 321 324 325 327 327 327 328 329 333 336 339 340 340 338 336 335 335 334 332 331 330 329 328 326 325 326 327 328 328 328 329 330 332 335 337 337 337 336 336
328 321 324 329 316 312 318 315 312 316 314 303 295 291 288 280 267 263 263 316 324 303 288 293 299 299 297 312 338 345 338 334 340 344 341 337 331 326 327 329 329 330 330 327 324 322 320 320 322 324 325 326 327 327 328 331 335 338 340 340 339 338 336 335 334 332 331 330 329 327 325 325 326 327 328 328 328 329 330 332 335 337 338 337 337 337
331 319 314 323 319 315 317 314 312 313 310 302 295 288 281 274 268 267 248 236 265 229 285 307 310 305 309 321 333 339 336 330 335 339 337 335 330 325 327 330 331 331 331 329 326 323 320 319 320 322 323 324 325 327 328 331 335 337 339 340 339 338 336 335 334 332 330 329 329 327 325 325 325 327 328 328 328 329 330 332 335 337 338 338 338 337
330 315 302 313 318 317 316 315 312 310 306 299 295 290 282 278 273 277 269 254 249 214 225 357 300 300 313 328 326 328 331 324 331 336 333 331 328 324 325 327 330 331 331 330 328 324 320 317 318 320 321 322 324 326 329 332 335 337 339 339 339 338 336 335 333 331 330 329 329 327 325 324 325 327 328 328 328 329 330 332 335 337 339 339 338 338
328 314 303 308 317 319 315 313 309 306 302 297 295 292 287 283 274 277 281 264 248 227 235 166 264 294 310 324 320 322 325 322 329 335 332 329 326 324 324 324 328 329 329 330 328 324 320 317 316 317 318 320 322 326 330 333 335 337 338 338 338 337 336 334 334 332 330 329 328 328 325 324 325 326 328 328 328 328 330 332 334 337 339 339 339 338
326 316 307 310 320 324 319 318 318 316 313 306 302 299 298 292 276 264 264 275 267 240 243 220 243 292 309 321 319 321 323 324 331 335 332 328 324 324 324 324 327 328 328 329 326 323 320 316 315 315 316 319 321 325 330 334 336 336 337 337 336 336 336 335 334 332 331 330 329 328 325 324 325 326 327 328 327 328 330 332 334 337 339 340 339 339
327 321 315 318 324 327 327 331 335 332 326 317 312 307 303 299 289 277 269 274 276 254 248 211 223 288 310 325 321 321 325 329 335 334 330 326 321 323 324 325 328 327 328 328 324 322 320 316 315 314 315 317 320 325 330 334 336 336 335 336 335 336 336 336 335 333 331 330 329 328 325 323 324 325 327 327 327 328 330 332 334 337 339 340 340 340
327 322 320 323 328 332 333 335 332 327 321 313 309 305 302 300 295 286 276 271 268 265 261 213 230 286 314 329 322 324 331 331 331 329 330 330 326 325 324 327 329 327 327 327 323 321 319 316 315 314 314 316 319 325 331 334 336 335 334 334 334 335 337 336 336 334 332 331 329 328 325 322 323 324 326 327 327 328 329 332 334 336 339 340 340 340
323 318 317 316 312 313 312 313 318 319 316 311 308 305 304 301 293 286 276 262 259 268 265 246 258 289 315 328 323 330 336 328 324 323 327 331 329 326 326 328 330 328 327 326 322 321 318 317 316 314 314 315 318 324 330 334 335 333 333 333 333 335 336 336 336 334 333 331 329 328 325 322 322 323 325 326 326 328 329 331 334 336 339 340 341 341
320 317 317 309 296 294 297 303 312 313 309 310 313 310 308 304 295 285 267 257 269 271 269 276 282 292 311 327 330 334 333 324 321 321 323 325 324 325 327 329 330 328 327 326 324 322 319 317 316 315 315 315 317 324 329 332 333 332 332 332 333 334 335 336 337 335 334 332 329 328 325 321 320 322 324 326 326 327 329 331 333 336 339 341 341 342
318 316 316 313 310 308 308 312 315 310 307 312 316 315 312 307 298 288 273 275 284 271 271 298 302 295 309 332 336 332 330 324 321 320 321 321 322 325 329 330 330 329 329 329 327 324 322 320 317 316 315 314 317 322 328 331 331 331 332 332 332 333 334 336 337 336 335 332 330 328 325 321 319 320 323 325 325 327 329 331 333 336 339 341 342 342
319 316 319 319 319 318 317 320 320 313 311 313 314 316 314 308 301 295 293 297 290 271 281 308 313 303 316 336 334 326 328 326 322 321 320 321 324 327 331 331 330 330 331 330 328 326 324 322 320 317 315 314 316 321 325 329 330 331 331 331 331 332 333 335 336 336 336 334 331 329 326 322 318 319 322 324 325 327 329 331 333 335 339 341 342 342
319 317 321 321 320 323 324 327 326 320 316 314 315 318 315 313 311 307 310 311 297 289 300 312 311 310 324 337 331 323 324 322 320 320 321 322 326 329 332 332 330 330 329 328 328 326 324 323 321 319 316 314 315 318 323 327 330 330 330 330 331 332 333 334 335 337 337 335 332 330 327 323 318 318 321 324 326 327 329 331 332 335 338 341 342 342
320 318 323 322 319 324 330 333 330 325 316 313 319 329 326 321 321 317 319 319 310 310 317 315 308 314 327 335 329 322 320 319 320 321 322 324 327 330 332 331 329 328 327 326 326 326 325 323 321 320 318 315 314 316 320 325 329 329 328 328 330 331 333 333 334 337 337 336 334 332 329 325 320 318 320 323 326 327 328 330 331 334 338 341 342 342
324 320 323 323 318 322 331 333 330 325 317 315 333 345 333 327 326 325 328 327 321 320 320 313 313 322 331 332 326 320 317 318 320 322 324 325 327 329 330 329 328 327 325 324 324 325 325 323 320 319 319 316 313 314 318 323 327 327 326 327 329 331 332 332 333 336 338 337 336 333 331 328 322 318 319 322 325 326 328 329 331 333 337 340 342 342
328 324 324 323 316 321 331 332 328 327 322 325 346 341 332 333 336 335 337 335 330 326 321 317 320 328 331 329 326 321 318 319 321 322 324 326 328 328 328 328 328 327 325 324 323 324 325 323 320 318 317 316 313 312 316 321 325 325 324 325 328 330 330 330 332 335 338 338 337 334 332 329 325 320 318 321 323 325 327 328 330 332 336 339 342 342
331 327 325 321 311 319 329 330 329 331 323 326 336 334 334 341 340 338 340 336 334 330 325 322 324 327 328 327 326 323 320 319 320 321 324 328 329 329 328 328 328 327 326 325 324 324 324 324 321 318 316 314 311 310 313 318 321 322 323 324 327 329 329 329 331 334 336 338 338 335 333 330 326 321 318 319 322 324 326 327 328 331 335 338 341 342
334 331 326 322 312 316 326 332 336 332 315 323 331 333 336 339 338 338 335 330 332 332 323 315 318 323 324 323 322 320 318 318 318 320 324 329 330 329 328 328 328 327 326 325 324 324 325 325 323 319 316 312 308 308 310 314 319 321 322 324 326 327 328 329 330 332 334 337 338 336 333 330 327 324 319 318 320 322 325 326 327 330 333 337 341 342
336 334 327 324 317 315 322 326 320 310 315 324 331 333 332 335 338 341 333 326 329 331 317 307 315 319 319 319 319 318 317 316 317 319 324 329 330 330 329 328 327 326 326 326 325 324 326 327 326 323 317 311 308 307 308 312 316 319 322 323 324 326 327 328 330 331 334 337 338 337 334 330 327 325 321 318 319 321 323 325 326 329 331 336 340 342
337 333 326 323 318 312 310 306 306 311 316 323 330 331 331 333 338 342 331 322 325 326 310 309 316 317 317 318 317 316 315 315 314 316 323 328 330 331 331 330 330 329 328 327 325 325 327 329 328 325 319 312 308 306 306 311 315 318 321 322 323 324 325 326 328 330 333 337 338 337 335 330 327 325 322 319 318 319 321 324 325 327 330 334 339 342
334 329 325 318 309 308 303 300 309 311 307 317 326 327 328 333 336 335 325 319 321 319 308 314 316 316 316 316 315 315 316 316 315 316 320 324 327 331 331 330 331 333 331 329 325 323 325 326 325 323 319 313 308 305 306 310 314 317 320 321 321 322 323 324 326 327 329 333 335 336 335 330 327 325 323 320 317 317 319 322 323 326 329 332 337 341
330 327 324 314 307 307 298 288 290 274 291 315 325 325 326 332 331 328 321 315 316 313 311 314 314 314 315 315 316 318 319 320 319 319 322 323 327 334 336 332 333 334 333 331 327 323 323 322 322 322 321 316 310 306 308 311 313 316 319 320 320 321 321 322 324 325 326 329 332 333 333 330 327 325 323 321 318 316 317 320 322 324 327 331 335 339
328 327 321 315 312 308 295 283 280 283 301 318 327 326 328 329 328 327 319 310 312 313 313 315 316 318 320 320 321 322 325 330 329 327 328 329 329 335 339 339 339 338 336 335 333 329 327 326 326 326 325 320 313 310 311 311 311 315 318 318 319 320 318 318 321 323 324 328 331 331 331 329 326 324 323 321 318 315 315 317 320 323 325 329 333 338
327 325 320 316 315 311 298 283 284 296 311 324 328 327 328 327 327 326 313 309 312 313 314 315 318 323 325 324 322 323 326 332 334 332 333 333 332 333 337 340 343 344 343 342 341 339 338 337 336 333 329 323 317 313 313 311 311 314 316 316 319 319 314 315 319 320 321 326 329 329 328 327 324 322 321 321 319 315 313 314 318 320 323 327 331 336
325 322 320 318 317 314 303 289 290 304 318 325 322 322 325 326 326 319 310 310 313 314 314 315 318 323 325 323 321 320 320 322 325 327 330 332 333 335 337 339 341 343 344 344 344 343 343 343 343 341 336 328 321 317 314 311 312 313 313 316 320 316 310 312 317 317 318 323 325 324 325 324 322 320 319 319 319 316 312 312 315 318 321 325 329 335
320 317 317 316 316 312 303 296 297 307 315 320 320 319 320 321 319 314 309 311 314 313 312 313 317 321 321 319 317 316 316 317 319 322 326 329 331 333 335 338 340 340 341 342 341 340 340 340 341 341 339 334 327 320 315 311 311 311 312 316 318 310 308 311 314 314 316 320 321 320 320 321 320 318 317 316 317 316 312 310 313 315 319 322 326 332
318 315 313 311 312 307 296 293 301 307 311 319 321 314 310 311 311 310 311 313 313 312 311 313 317 318 315 313 313 312 313 315 315 319 322 323 326 329 331 334 336 337 338 339 338 338 337 336 337 337 338 337 333 325 317 312 310 310 312 316 313 307 308 310 310 312 315 318 318 316 316 317 318 317 315 314 314 315 311 309 310 312 315 319 324 330
321 322 315 309 311 308 298 300 309 314 316 319 314 307 307 309 310 310 311 312 311 312 313 313 315 315 311 309 309 308 310 312 312 314 317 317 320 323 325 328 331 332 333 334 334 334 333 333 334 334 335 337 335 328 321 314 309 309 312 312 308 306 308 307 308 312 314 315 316 314 313 315 316 315 314 312 312 313 311 307 307 309 312 316 321 326
327 325 316 311 314 313 312 317 321 320 320 318 314 313 314 314 314 313 312 312 312 312 312 312 312 312 309 307 307 307 308 309 309 310 311 312 314 316 317 320 323 326 328 329 329 330 330 330 331 331 333 335 334 329 323 316 310 308 309 307 304 304 304 304 306 310 312 313 313 312 312 314 314 314 313 310 309 311 310 307 305 305 308 313 317 323
328 321 315 314 313 311 319 331 332 325 323 322 322 324 322 317 316 316 316 317 317 314 312 309 306 306 305 304 305 305 305 307 308 308 308 309 311 312 313 315 317 320 323 325 326 327 327 327 328 328 329 331 332 328 323 316 309 307 306 304 302 301 301 302 305 308 309 310 310 310 312 313 311 311 311 308 306 308 308 306 304 302 304 309 313 319
321 316 316 317 315 313 322 333 335 330 330 329 328 329 326 320 318 318 318 321 319 315 312 306 300 300 301 301 303 303 303 305 308 309 309 310 311 313 314 314 315 317 319 321 322 324 324 325 326 325 325 327 328 327 323 315 306 303 302 301 301 300 299 301 303 305 306 307 307 308 310 310 308 307 307 306 304 305 307 306 303 300 301 305 309 315
309 310 314 314 314 318 326 332 331 328 330 332 332 330 323 317 317 316 316 316 313 310 308 305 302 300 300 301 304 304 304 306 308 311 312 312 314 316 317 318 319 320 321 322 322 323 324 325 325 324 324 325 325 324 322 315 305 300 298 298 298 299 299 301 302 303 305 306 306 307 307 307 305 303 304 303 302 302 305 305 302 299 299 301 305 311
304 309 312 307 308 316 326 330 325 319 323 330 332 325 315 312 312 312 312 311 307 304 304 304 304 303 303 304 307 308 307 307 308 310 311 312 315 318 319 321 322 323 324 325 325 325 325 325 325 324 324 324 324 323 321 316 309 303 299 298 298 298 299 301 302 303 304 305 305 305 304 304 303 301 302 302 300 300 303 304 301 298 296 298 302 307
307 310 309 302 303 312 322 325 317 310 315 324 325 316 308 308 308 306 305 303 300 300 300 300 302 303 304 304 306 309 311 310 309 310 310 310 313 316 319 321 323 324 325 326 326 325 324 324 325 325 325 324 325 324 322 319 314 309 304 302 301 300 299 300 300 302 303 304 304 302 301 302 302 300 300 300 299 299 301 301 300 297 294 294 298 302
Height
3161 3161 3161 3160 3160 3160 3159 3159 3159 3158 3158 3157 3156 3156 3155 3154 3153 3152 3151 3150 3149 3147 3145 3144 3142 3140 3139 3138 3137 3136 3134 3132 3130 3129 3127 3125 3123 3121 3119 3116 3114 3112 3110 3108 3105 3103 3100 3098 3096 3093 3090 3088 3085 3082 3079 3076 3073 3069 3066 3062 3059 3055 3052 3049 3046 3043 3040 3037 3033 3030 3027 3023 3020 3017 3014 3010 3006 3002 2998 2995 2991 2988 2984 2981 2977 2974
3162 3162 3161 3160 3160 3160 3160 3159 3159 3158 3158 3157 3156 3155 3154 3153 3152 3151 3150 3149 3148 3146 3144 3143 3140 3138 3138 3136 3135 3134 3132 3130 3128 3127 3125 3123 3122 3119 3117 3115 3113 3110 3108 3106 3103 3101 3098 3096 3093 3091 3088 3085 3082 3079 3076 3073 3070 3067 3063 3060 3056 3053 3050 3047 3044 3041 3038 3034 3031 3027 3024 3021 3018 3014 3011 3008 3004 3000 2995 2992 2988 2984 2981 2978 2974 2971
3163 3162 3161 3160 3160 3160 3160 3159 3159 3158 3157 3157 3156 3155 3154 3153 3151 3150 3149 3148 3147 3144 3143 3141 3138 3136 3136 3134 3132 3131 3129 3128 3126 3125 3123 3121 3120 3118 3115 3113 3111 3108 3106 3103 3101 3099 3096 3094 3091 3089 3085 3082 3080 3076 3074 3071 3067 3064 3061 3058 3054 3051 3048 3045 3042 3039 3035 3032 3028 3024 3021 3018 3015 3011 3008 3005 3001 2997 2993 2989 2985 2982 2979 2976 2972 2968
3163 3162 3161 3161 3160 3160 3160 3159 3159 3158 3157 3156 3155 3154 3153 3152 3151 3150 3148 3147 3146 3143 3141 3140 3135 3132 3132 3131 3129 3129 3127 3126 3125 3123 3121 3119 3117 3116 3113 3111 3109 3106 3104 3101 3099 3096 3094 3092 3089 3086 3083 3080 3077 3074 3071 3068 3065 3062 3059 3055 3052 3048 3045 3042 3039 3036 3033 3029 3025 3021 3018 3015 3012 3008 3005 3002 2998 2995 2991 2988 2984 2980 2977 2974 2970 2965
3163 3162 3162 3161 3161 3160 3160 3159 3159 3157 3157 3156 3155 3153 3152 3151 3150 3149 3147 3146 3144 3142 3140 3139 3133 3128 3128 3128 3126 3126 3125 3123 3123 3121 3119 3117 3115 3114 3112 3109 3107 3104 3102 3099 3097 3094 3091 3089 3086 3083 3080 3077 3074 3072 3069 3066 3063 3059 3056 3053 3049 3046 3042 3039 3037 3033 3030 3026 3022 3019 3015 3012 3009 3005 3002 2999 2997 2993 2990 2986 2983 2979 2975 2971 2966 2962
3164 3163 3162 3162 3161 3161 3160 3159 3159 3157 3156 3155 3154 3153 3151 3150 3149 3147 3146 3145 3143 3141 3139 3139 3135 3126 3124 3125 3125 3124 3122 3121 3120 3119 3118 3116 3113 3112 3110 3107 3105 3102 3100 3097 3095 3092 3089 3086 3084 3081 3078 3075 3072 3069 3066 3063 3060 3057 3053 3050 3046 3043 3040 3037 3034 3031 3027 3023 3020 3016 3012 3009 3006 3003 3000 2997 2994 2991 2987 2984 2980 2976 2972 2967 2963 2959
3165 3164 3163 3162 3162 3161 3161 3160 3159 3157 3156 3155 3153 3152 3151 3149 3148 3147 3145 3144 3142 3140 3138 3139 3137 3128 3120 3121 3123 3121 3120 3119 3118 3117 3115 3114 3112 3109 3107 3105 3103 3100 3098 3095 3093 3090 3087 3084 3081 3078 3075 3073 3070 3067 3064 3061 3057 3054 3051 3047 3044 3040 3037 3034 3031 3028 3024 3020 3017 3013 3010 3007 3004 3001 2998 2994 2991 2988 2984 2980 2977 2973 2969 2964 2960 2956
3165 3164 3163 3163 3162 3161 3160 3159 3158 3156 3155 3154 3153 3152 3150 3148 3147 3145 3144 3143 3141 3139 3137 3136 3136 3131 3121 3117 3119 3118 3117 3117 3116 3115 3113 3111 3109 3107 3105 3103 3100 3098 3096 3093 3091 3088 3085 3082 3079 3076 3074 3071 3068 3065 3062 3058 3055 3051 3048 3044 3041 3038 3035 3032 3029 3025 3022 3018 3014 3011 3007 3004 3001 2997 2994 2991 2988 2984 2981 2977 2974 2970 2967 2962 2958 2954
3165 3164 3164 3163 3162 3161 3160 3158 3157 3156 3155 3153 3152 3150 3149 3147 3145 3144 3142 3142 3140 3138 3136 3133 3133 3132 3121 3115 3116 3115 3114 3114 3113 3113 3112 3109 3107 3105 3102 3100 3098 3096 3093 3091 3089 3086 3083 3080 3077 3075 3072 3069 3066 3063 3059 3055 3052 3048 3045 3042 3038 3035 3032 3029 3026 3022 3019 3015 3011 3008 3005 3001 2998 2994 2991 2988 2984 2981 2978 2975 2971 2968 2964 2960 2956 2951
3165 3164 3163 3162 3162 3160 3159 3158 3156 3155 3154 3152 3151 3149 3148 3146 3143 3142 3141 3140 3139 3137 3134 3132 3132 3130 3120 3112 3114 3113 3111 3112 3111 3110 3109 3107 3105 3102 3100 3098 3096 3094 3092 3089 3087 3084 3081 3078 3075 3072 3069 3066 3063 3060 3056 3052 3049 3045 3042 3039 3036 3033 3030 3027 3023 3019 3016 3012 3009 3005 3002 2999 2995 2992 2988 2985 2981 2978 2975 2972 2969 2965 2962 2957 2953 2948
3165 3164 3163 3162 3161 3160 3158 3157 3156 3155 3153 3152 3150 3148 3147 3145 3142 3141 3139 3138 3139 3135 3132 3131 3130 3132 3123 3111 3110 3112 3110 3109 3108 3107 3107 3106 3104 3101 3098 3096 3094 3092 3089 3087 3085 3082 3079 3076 3073 3070 3067 3064 3060 3057 3053 3049 3046 3043 3039 3036 3033 3030 3027 3024 3020 3017 3013 3009 3006 3002 2999 2995 2992 2989 2986 2982 2979 2975 2972 2969 2966 2962 2958 2954 2949 2945
3164 3163 3162 3161 3160 3159 3158 3156 3155 3154 3152 3151 3150 3148 3146 3144 3141 3139 3138 3138 3137 3133 3131 3130 3129 3131 3125 3111 3109 3111 3109 3107 3106 3105 3105 3103 3102 3100 3097 3094 3092 3090 3087 3085 3082 3080 3077 3074 3071 3068 3064 3060 3057 3053 3050 3047 3043 3040 3037 3034 3030 3027 3024 3021 3018 3014 3010 3007 3003 2999 2996 2992 2989 2986 2982 2979 2975 2972 2969 2966 2962 2959 2955 2951 2946 2941
3163 3162 3161 3160 3159 3158 3157 3155 3154 3152 3151 3150 3149 3148 3146 3144 3142 3140 3138 3138 3136 3131 3130 3129 3129 3127 3118 3109 3108 3108 3107 3106 3105 3103 3102 3101 3099 3097 3095 3092 3090 3088 3085 3082 3080 3077 3074 3071 3068 3065 3061 3057 3054 3050 3047 3044 3041 3037 3034 3031 3028 3024 3021 3018 3015 3011 3007 3004 3000 2996 2992 2989 2986 2983 2979 2976 2972 2969 2965 2962 2959 2955 2951 2947 2943 2938
3162 3161 3160 3159 3158 3157 3155 3154 3153 3152 3151 3149 3148 3147 3146 3146 3146 3143 3141 3138 3133 3130 3129 3129 3129 3121 3110 3107 3107 3106 3105 3105 3103 3102 3100 3098 3097 3094 3092 3090 3087 3085 3083 3080 3077 3074 3071 3068 3065 3062 3058 3054 3051 3048 3044 3041 3038 3035 3031 3028 3025 3021 3018 3015 3012 3008 3004 3001 2997 2993 2989 2986 2983 2979 2976 2972 2969 2966 2962 2959 2955 2951 2947 2943 2939 2935
3162 3160 3159 3158 3157 3155 3154 3153 3152 3151 3149 3147 3146 3146 3146 3146 3146 3144 3141 3137 3131 3128 3126 3127 3125 3116 3107 3106 3106 3104 3104 3103 3101 3100 3099 3096 3094 3091 3089 3087 3085 3082 3080 3077 3074 3072 3068 3065 3062 3059 3055 3052 3048 3045 3042 3039 3035 3032 3028 3025 3022 3018 3015 3012 3008 3005 3002 2998 2994 2990 2986 2983 2980 2976 2973 2969 2966 2963 2959 2955 2952 2948 2944 2940 2936 2931
3162 3159 3158 3157 3155 3154 3153 3152 3151 3149 3148 3146 3145 3145 3144 3144 3144 3142 3140 3137 3134 3130 3124 3120 3117 3111 3106 3105 3104 3103 3103 3101 3100 3098 3097 3094 3091 3088 3086 3084 3082 3080 3077 3075 3072 3069 3066 3062 3059 3056 3052 3049 3045 3042 3039 3036 3033 3029 3026 3022 3019 3015 3012 3009 3005 3002 2999 2995 2991 2987 2983 2980 2976 2973 2970 2967 2963 2960 2956 2952 2949 2945 2941 2937 2933 2928
3161 3158 3157 3155 3154 3153 3152 3151 3150 3148 3146 3145 3144 3143 3143 3142 3141 3140 3138 3136 3137 3133 3122 3114 3111 3107 3105 3104 3102 3103 3102 3100 3099 3097 3095 3093 3089 3086 3084 3081 3079 3077 3075 3072 3069 3066 3063 3059 3056 3053 3049 3046 3042 3039 3036 3033 3030 3027 3023 3019 3016 3012 3009 3006 3002 2999 2996 2992 2988 2984 2980 2977 2973 2970 2967 2964 2961 2957 2953 2950 2946 2942 2938 2934 2930 2925
3160 3157 3155 3154 3153 3152 3151 3149 3148 3147 3146 3144 3143 3142 3141 3141 3140 3139 3138 3136 3137 3133 3121 3111 3109 3106 3105 3103 3100 3101 3101 3099 3098 3095 3093 3090 3087 3084 3082 3079 3077 3074 3072 3069 3066 3063 3059 3056 3053 3049 3046 3043 3040 3037 3033 3031 3028 3024 3020 3017 3013 3009 3006 3003 2999 2996 2993 2989 2985 2981 2977 2974 2970 2967 2964 2961 2958 2955 2951 2947 2943 2939 2935 2931 2927 2923
3160 3155 3152 3153 3152 3150 3150 3148 3146 3145 3144 3142 3141 3141 3140 3139 3138 3138 3138 3135 3135 3134 3123 3112 3107 3104 3103 3101 3099 3099 3099 3096 3095 3092 3090 3088 3085 3082 3080 3077 3075 3072 3069 3066 3063 3060 3056 3053 3050 3046 3043 3040 3036 3034 3031 3028 3025 3021 3017 3014 3010 3007 3003 3000 2996 2993 2990 2986 2982 2978 2974 2971 2967 2964 2961 2958 2955 2952 2948 2944 2940 2937 2933 2929 2925 2920
3160 3156 3152 3151 3151 3149 3147 3146 3144 3143 3142 3141 3140 3139 3139 3138 3137 3136 3137 3135 3133 3133 3127 3117 3107 3099 3097 3098 3097 3097 3097 3094 3093 3090 3087 3085 3082 3080 3078 3075 3072 3069 3066 3062 3059 3056 3053 3050 3047 3043 3040 3036 3033 3031 3028 3025 3022 3018 3015 3011 3007 3004 3000 2997 2993 2990 2987 2983 2979 2975 2971 2968 2965 2961 2958 2956 2953 2949 2945 2941 2938 2934 2930 2926 2922 2917
3159 3157 3153 3150 3150 3149 3146 3145 3143 3141 3140 3139 3138 3138 3138 3137 3137 3135 3134 3133 3131 3132 3130 3126 3114 3095 3091 3097 3097 3095 3095 3093 3091 3088 3085 3082 3079 3077 3076 3073 3069 3066 3063 3059 3056 3052 3049 3046 3043 3040 3036 3033 3030 3028 3025 3022 3019 3015 3012 3008 3004 3001 2997 2994 2990 2987 2984 2980 2976 2972 2968 2965 2962 2958 2956 2953 2950 2946 2943 2939 2935 2931 2928 2924 2919 2914
3159 3156 3152 3148 3148 3148 3145 3144 3142 3140 3139 3138 3137 3138 3137 3136 3136 3134 3132 3129 3129 3129 3127 3127 3117 3094 3086 3094 3094 3093 3093 3091 3089 3087 3083 3080 3076 3074 3073 3070 3067 3063 3059 3057 3053 3049 3046 3043 3040 3036 3033 3030 3027 3025 3022 3019 3016 3012 3009 3005 3001 2998 2994 2991 2987 2984 2980 2977 2973 2969 2965 2962 2959 2956 2953 2950 2947 2944 2940 2936 2933 2929 2925 2921 2917 2912
3158 3155 3151 3147 3146 3146 3144 3142 3141 3139 3139 3138 3138 3137 3136 3135 3134 3133 3131 3126 3126 3126 3122 3125 3118 3094 3084 3092 3092 3090 3090 3088 3086 3085 3080 3077 3074 3071 3069 3067 3064 3060 3057 3054 3050 3046 3042 3039 3036 3033 3030 3027 3024 3022 3019 3016 3013 3009 3006 3002 2998 2994 2991 2987 2984 2981 2977 2974 2970 2966 2962 2959 2956 2953 2950 2947 2945 2941 2938 2934 2930 2926 2922 2919 2914 2909
3158 3155 3151 3145 3142 3142 3142 3142 3141 3140 3139 3138 3137 3136 3135 3133 3132 3131 3129 3126 3124 3121 3118 3122 3114 3091 3084 3091 3090 3087 3087 3085 3084 3082 3078 3074 3071 3068 3066 3064 3061 3057 3053 3051 3047 3043 3039 3035 3032 3029 3026 3024 3021 3019 3016 3013 3010 3006 3003 2999 2995 2991 2988 2985 2981 2978 2974 2971 2967 2963 2959 2956 2953 2950 2947 2945 2942 2939 2935 2931 2928 2924 2920 2916 2912 2907
3157 3155 3153 3147 3141 3138 3136 3137 3137 3136 3136 3135 3134 3134 3132 3130 3129 3128 3125 3124 3121 3115 3113 3115 3105 3088 3085 3089 3086 3085 3085 3082 3080 3078 3075 3071 3068 3065 3062 3060 3057 3053 3049 3046 3043 3039 3035 3031 3028 3025 3022 3020 3018 3015 3013 3009 3006 3003 2999 2996 2992 2988 2985 2982 2979 2975 2971 2968 2964 2960 2957 2953 2950 2948 2945 2942 2939 2936 2932 2929 2925 2921 2918 2914 2910 2905
3156 3154 3153 3152 3149 3145 3140 3137 3135 3133 3132 3131 3129 3129 3128 3127 3126 3124 3122 3122 3117 3111 3109 3106 3095 3085 3084 3085 3083 3083 3081 3077 3075 3073 3070 3068 3065 3061 3058 3055 3053 3049 3045 3042 3038 3034 3031 3027 3024 3021 3019 3017 3015 3012 3009 3006 3003 3000 2996 2993 2989 2986 2983 2979 2976 2972 2969 2965 2961 2957 2954 2951 2948 2945 2942 2939 2936 2933 2930 2926 2923 2919 2915 2912 2907 2902
3153 3151 3151 3151 3149 3147 3144 3140 3138 3135 3131 3128 3126 3125 3123 3122 3120 3119 3119 3116 3110 3107 3103 3096 3089 3085 3082 3081 3081 3079 3077 3073 3070 3068 3065 3062 3059 3057 3054 3052 3049 3045 3041 3037 3034 3031 3027 3024 3021 3018 3015 3013 3011 3009 3006 3003 3000 2996 2993 2990 2986 2983 2980 2976 2973 2969 2966 2962 2958 2955 2951 2948 2945 2943 2940 2937 2933 2930 2927 2924 2920 2917 2913 2909 2905 2900
3151 3148 3147 3146 3144 3142 3140 3137 3136 3134 3129 3126 3123 3120 3118 3118 3116 3114 3112 3107 3106 3105 3097 3090 3089 3086 3080 3080 3079 3076 3074 3071 3067 3064 3061 3058 3055 3053 3052 3049 3045 3041 3037 3034 3030 3027 3023 3020 3017 3014 3011 3009 3007 3006 3003 2999 2996 2993 2990 2987 2983 2980 2977 2973 2970 2966 2963 2959 2955 2952 2949 2945 2943 2940 2937 2934 2930 2927 2924 2921 2918 2914 2910 2907 2902 2898
3149 3145 3143 3142 3139 3137 3136 3133 3131 3129 3126 3123 3120 3116 3114 3113 3111 3108 3105 3102 3103 3101 3092 3087 3088 3084 3080 3079 3078 3074 3072 3069 3065 3062 3059 3056 3054 3052 3049 3045 3040 3036 3033 3029 3026 3023 3019 3016 3013 3010 3007 3005 3003 3002 2999 2996 2993 2990 2987 2984 2980 2977 2974 2970 2967 2963 2960 2956 2953 2949 2946 2943 2940 2937 2934 2931 2928 2924 2921 2918 2915 2911 2908 2904 2900 2896
3147 3144 3141 3139 3135 3133 3132 3130 3127 3125 3122 3118 3115 3112 3111 3109 3107 3104 3102 3100 3099 3094 3088 3087 3086 3082 3080 3079 3076 3073 3070 3067 3063 3060 3057 3054 3052 3049 3045 3040 3036 3032 3029 3025 3022 3018 3015 3012 3008 3006 3003 3001 3000 2998 2996 2993 2990 2987 2984 2981 2977 2974 2971 2967 2964 2960 2957 2953 2950 2947 2943 2940 2937 2934 2931 2928 2925 2922 2918 2916 2912 2909 2906 2902 2898 2894
3146 3143 3140 3138 3133 3130 3129 3128 3125 3122 3119 3114 3111 3110 3109 3107 3105 3103 3100 3098 3095 3091 3088 3086 3083 3080 3080 3078 3074 3071 3067 3063 3060 3058 3055 3052 3048 3045 3041 3037 3033 3029 3025 3021 3018 3014 3011 3008 3004 3002 2999 2997 2996 2994 2992 2989 2986 2983 2980 2977 2974 2971 2967 2964 2961 2957 2954 2951 2947 2944 2941 2938 2934 2931 2928 2925 2922 2919 2916 2913 2910 2906 2903 2900 2896 2892
3145 3142 3139 3138 3133 3128 3127 3126 3123 3120 3116 3112 3110 3109 3108 3105 3103 3101 3099 3097 3094 3090 3087 3085 3082 3079 3077 3075 3071 3068 3064 3061 3057 3054 3051 3048 3045 3041 3037 3033 3030 3026 3021 3017 3014 3010 3007 3004 3000 2998 2995 2994 2992 2990 2988 2986 2983 2980 2977 2974 2971 2967 2964 2961 2958 2954 2951 2948 2945 2941 2938 2935 2931 2929 2926 2923 2920 2916 2913 2910 2907 2904 2901 2898 2894 2890
3145 3142 3139 3138 3134 3128 3126 3125 3122 3118 3113 3110 3109 3108 3105 3103 3102 3100 3098 3096 3093 3090 3085 3083 3080 3077 3075 3072 3068 3065 3061 3057 3053 3050 3047 3044 3041 3037 3033 3029 3025 3022 3017 3013 3009 3006 3003 3000 2997 2994 2991 2990 2988 2986 2984 2982 2979 2977 2974 2971 2968 2964 2961 2958 2955 2952 2948 2945 2942 2939 2935 2932 2928 2926 2923 2920 2917 2914 2910 2907 2904 2902 2899 2895 2892 2888
3144 3142 3139 3138 3134 3128 3125 3124 3120 3117 3112 3109 3109 3108 3105 3103 3101 3099 3097 3095 3092 3089 3084 3080 3078 3075 3072 3069 3066 3062 3058 3054 3049 3046 3044 3041 3036 3032 3028 3024 3021 3017 3012 3008 3004 3001 2998 2995 2993 2990 2988 2986 2983 2982 2980 2978 2976 2974 2970 2967 2964 2961 2958 2955 2952 2949 2946 2942 2939 2936 2932 2929 2925 2922 2920 2917 2914 2911 2908 2905 2902 2899 2896 2893 2890 2886
3142 3141 3138 3136 3133 3128 3125 3123 3121 3118 3112 3108 3107 3107 3104 3102 3100 3097 3094 3092 3090 3087 3081 3077 3074 3072 3069 3067 3063 3059 3055 3051 3047 3043 3040 3038 3033 3027 3023 3020 3016 3012 3008 3004 3000 2997 2994 2991 2988 2986 2984 2982 2979 2978 2976 2975 2973 2970 2967 2964 2961 2958 2955 2952 2949 2946 2943 2939 2936 2933 2930 2926 2922 2919 2917 2914 2911 2908 2905 2903 2899 2896 2894 2891 2887 2883
3142 3140 3137 3135 3132 3128 3125 3125 3122 3116 3109 3106 3106 3105 3102 3100 3097 3094 3090 3086 3086 3084 3078 3074 3072 3069 3066 3063 3060 3056 3051 3047 3043 3040 3037 3033 3028 3024 3019 3015 3012 3009 3005 3002 2998 2994 2991 2988 2985 2982 2980 2978 2976 2974 2972 2971 2968 2966 2963 2960 2957 2955 2952 2949 2946 2943 2940 2937 2933 2930 2927 2923 2920 2916 2914 2911 2908 2906 2903 2900 2897 2894 2891 2888 2885 2881
3141 3139 3136 3134 3132 3128 3126 3123 3119 3113 3106 3103 3104 3103 3101 3098 3096 3093 3088 3083 3083 3081 3076 3072 3069 3065 3062 3059 3055 3051 3046 3041 3038 3035 3033 3029 3025 3021 3017 3013 3009 3005 3002 2999 2995 2992 2988 2985 2982 2979 2977 2974 2972 2970 2968 2966 2964 2962 2959 2957 2954 2951 2949 2945 2943 2940 2937 2934 2930 2927 2924 2920 2917 2914 2911 2908 2905 2903 2900 2897 2894 2892 2888 2885 2882 2879
3141 3138 3136 3134 3130 3128 3126 3121 3117 3111 3104 3100 3102 3101 3099 3096 3094 3092 3087 3081 3080 3079 3074 3069 3066 3061 3057 3054 3049 3045 3041 3036 3031 3028 3027 3025 3021 3017 3014 3010 3007 3003 2999 2995 2991 2988 2985 2982 2978 2976 2973 2971 2969 2967 2964 2962 2960 2958 2956 2953 2950 2948 2945 2942 2939 2937 2934 2930 2927 2924 2921 2917 2914 2910 2908 2905 2903 2900 2897 2895 2892 2889 2886 2883 2880 2877
3139 3136 3134 3132 3129 3127 3125 3121 3117 3110 3101 3099 3101 3100 3097 3094 3092 3089 3084 3078 3076 3074 3070 3066 3062 3058 3054 3050 3046 3042 3038 3033 3028 3024 3022 3019 3016 3013 3009 3006 3003 3000 2997 2993 2988 2984 2981 2978 2975 2973 2970 2968 2966 2963 2961 2958 2956 2954 2952 2950 2947 2944 2942 2939 2936 2933 2931 2927 2924 2921 2918 2914 2911 2907 2904 2902 2900 2897 2895 2892 2889 2887 2884 2881 2878 2875
3136 3134 3132 3129 3126 3124 3122 3118 3112 3104 3098 3099 3100 3098 3095 3093 3090 3086 3081 3074 3070 3068 3065 3061 3058 3055 3052 3048 3044 3040 3036 3032 3026 3022 3020 3016 3013 3011 3008 3004 3000 2997 2993 2990 2986 2982 2978 2975 2972 2970 2968 2966 2963 2961 2958 2955 2952 2950 2949 2946 2944 2941 2938 2935 2933 2930 2927 2924 2921 2918 2915 2911 2908 2904 2901 2899 2896 2894 2892 2889 2887 2884 2881 2879 2876 2873
3134 3132 3129 3126 3124 3121 3118 3114 3107 3101 3098 3099 3099 3097 3094 3091 3087 3085 3080 3072 3067 3065 3062 3058 3054 3051 3048 3045 3041 3038 3035 3032 3027 3023 3020 3017 3013 3010 3007 3003 3000 2996 2992 2988 2984 2980 2977 2974 2971 2968 2966 2963 2961 2958 2955 2952 2949 2947 2945 2943 2940 2938 2934 2931 2929 2926 2924 2921 2918 2915 2912 2908 2905 2901 2898 2896 2893 2891 2889 2886 2884 2881 2879 2876 2874 2871
3132 3129 3126 3124 3122 3119 3115 3111 3105 3101 3099 3099 3097 3095 3092 3089 3086 3083 3077 3071 3067 3063 3060 3056 3052 3049 3046 3042 3039 3036 3033 3031 3027 3023 3020 3017 3012 3008 3005 3001 2998 2994 2991 2987 2983 2979 2976 2973 2970 2967 2964 2961 2958 2955 2952 2949 2946 2944 2941 2939 2937 2934 2930 2927 2925 2922 2920 2917 2914 2911 2908 2905 2901 2898 2895 2892 2890 2888 2885 2883 2881 2878 2876 2874 2871 2869
3130 3128 3125 3122 3120 3117 3112 3109 3106 3101 3097 3097 3095 3092 3089 3087 3083 3078 3072 3068 3065 3061 3057 3054 3050 3047 3043 3040 3037 3034 3031 3028 3025 3021 3018 3015 3011 3007 3003 3000 2996 2992 2988 2985 2981 2978 2974 2971 2968 2966 2963 2959 2955 2952 2948 2945 2942 2940 2938 2936 2933 2929 2926 2923 2921 2918 2916 2913 2911 2908 2905 2901 2898 2895 2892 2889 2886 2884 2882 2880 2878 2876 2874 2872 2869 2866
3127 3127 3124 3120 3119 3116 3110 3106 3104 3098 3094 3094 3092 3089 3086 3083 3079 3073 3068 3064 3061 3057 3053 3049 3046 3044 3040 3036 3033 3031 3028 3025 3021 3018 3014 3011 3008 3004 3001 2997 2994 2990 2987 2983 2979 2975 2972 2968 2965 2962 2960 2957 2953 2948 2945 2941 2938 2936 2934 2932 2929 2925 2922 2919 2917 2914 2911 2909 2907 2904 2901 2898 2894 2891 2888 2885 2883 2881 2879 2877 2875 2873 2871 2869 2867 2864
3124 3124 3121 3116 3115 3112 3105 3101 3099 3093 3089 3090 3089 3085 3081 3078 3074 3069 3065 3060 3057 3054 3050 3046 3042 3040 3037 3033 3030 3027 3024 3021 3017 3014 3011 3007 3004 3001 2997 2994 2991 2987 2983 2980 2976 2972 2969 2965 2961 2958 2956 2953 2949 2944 2940 2937 2933 2931 2930 2927 2924 2920 2918 2915 2912 2910 2907 2905 2903 2900 2897 2894 2891 2888 2884 2882 2879 2877 2876 2874 2872 2870 2869 2867 2865 2863
3121 3120 3116 3111 3109 3106 3100 3096 3094 3089 3086 3086 3084 3080 3076 3073 3069 3065 3061 3057 3054 3051 3047 3044 3040 3037 3034 3031 3026 3023 3020 3017 3013 3010 3007 3003 3000 2997 2994 2990 2987 2984 2980 2976 2972 2968 2964 2961 2957 2954 2950 2948 2945 2940 2936 2932 2929 2926 2924 2922 2919 2916 2913 2910 2907 2905 2903 2901 2898 2896 2893 2890 2887 2884 2881 2878 2876 2874 2872 2871 2869 2867 2866 2864 2863 2861
3117 3115 3112 3108 3105 3101 3096 3093 3091 3085 3081 3080 3078 3075 3072 3069 3065 3061 3057 3054 3050 3047 3044 3041 3038 3035 3032 3029 3024 3020 3016 3014 3010 3006 3002 2999 2996 2993 2989 2985 2982 2979 2976 2971 2967 2963 2959 2955 2952 2948 2945 2942 2939 2935 2931 2928 2924 2921 2919 2916 2913 2911 2908 2905 2903 2900 2898 2896 2894 2891 2889 2887 2884 2881 2877 2874 2872 2871 2869 2867 2866 2864 2863 2862 2860 2859
3114 3111 3107 3104 3101 3097 3092 3089 3087 3082 3078 3076 3073 3071 3068 3064 3059 3056 3053 3049 3046 3043 3040 3038 3035 3032 3029 3026 3022 3017 3013 3010 3007 3002 2997 2994 2991 2988 2984 2981 2977 2974 2971 2967 2963 2959 2955 2950 2947 2943 2939 2936 2933 2929 2925 2922 2920 2917 2913 2910 2908 2906 2903 2900 2898 2895 2893 2891 2889 2886 2884 2882 2880 2877 2873 2870 2869 2867 2866 2864 2863 2861 2860 2859 2858 2856
3110 3107 3103 3099 3095 3091 3088 3085 3081 3077 3074 3072 3069 3065 3063 3059 3055 3051 3048 3045 3042 3039 3036 3034 3031 3029 3025 3022 3019 3014 3009 3006 3003 2998 2993 2990 2986 2983 2979 2976 2972 2969 2965 2962 2958 2954 2950 2946 2942 2937 2934 2930 2927 2923 2920 2917 2915 2912 2908 2905 2903 2900 2898 2896 2893 2890 2888 2887 2884 2882 2880 2877 2875 2872 2869 2866 2865 2864 2863 2861 2859 2858 2857 2856 2855 2853
3107 3103 3100 3095 3090 3085 3083 3081 3077 3071 3068 3067 3065 3061 3057 3054 3051 3047 3044 3041 3038 3035 3031 3028 3025 3023 3021 3017 3014 3009 3005 3001 2997 2993 2989 2985 2982 2978 2974 2970 2966 2963 2960 2956 2952 2948 2944 2940 2936 2932 2928 2925 2921 2917 2914 2911 2909 2906 2903 2900 2898 2895 2893 2890 2888 2885 2883 2882 2880 2877 2875 2873 2870 2868 2865 2862 2860 2860 2859 2858 2856 2855 2854 2853 2852 2851
3104 3100 3097 3092 3086 3081 3079 3077 3073 3068 3063 3061 3060 3057 3053 3049 3046 3042 3039 3035 3032 3029 3025 3021 3017 3015 3012 3010 3007 3004 2999 2995 2991 2987 2983 2979 2976 2973 2968 2965 2961 2956 2953 2949 2945 2940 2936 2933 2929 2926 2923 2919 2915 2912 2908 2906 2904 2901 2897 2894 2892 2890 2887 2885 2882 2880 2878 2877 2875 2872 2870 2868 2866 2863 2861 2858 2856 2855 2855 2854 2852 2851 2850 2849 2849 2848